Location: Rokycany
(49.7330°N, 13.6000°E)
Time: 20:25:37
(UTC+02:00)

ISS - Pass Details

Date: 27 March 2019
Orbit: 408 x 410 km, 51.6° (Epoch: 25 April)

Event Time Altitude Azimuth Distance (km) Brightness Sun altitude
Rises 20:08:30 0° 266° (W) 2,334 1.1 -16.3°
Reaches altitude 10° 20:10:36 10° 270° (W) 1,473 0.0 -16.6°
Maximum altitude 20:13:53 64° 352° (N) 458 -3.5 -17.1°
Enters shadow 20:15:00 37° 61° (ENE) 661 -3.1 -17.2°
